Location: Unspecified
(48.8656°N, 0.0000°E)
Time: 00:36:52
(UTC+00:00)

Transit 2A Rocket - Pass Details

Date: 24 June 2019
Orbit: 590 x 913 km, 66.7° (Epoch: 18 August)

Event Time Altitude Azimuth Distance (km) Brightness Sun altitude
Rises 19:27:23 0° 314° (NW) 3,270 10.3 4.6°
Reaches altitude 10° 19:30:28 10° 298° (WNW) 2,272 10.3 4.2°
Maximum altitude 19:34:05 20° 254° (WSW) 1,636 7.4 3.7°
Drops below altitude 10° 19:37:29 10° 208° (SSW) 2,112 7.3 3.2°
Sets 19:40:14 0° 191° (S) 2,965 7.8 2.8°
